TimeCDT,TemperatureF,Dew PointF,Humidity,Sea Level PressureIn,VisibilityMPH,Wind Direction,Wind SpeedMPH,Gust SpeedMPH,PrecipitationIn,Events,Conditions,WindDirDegrees,DateUTC
12:14 AM,62.6,59.0,88,30.02,10.0,ESE,9.2,-,0.19,Rain,Heavy Rain,110,2013-06-18 05:14:00
12:34 AM,62.6,59.0,88,30.02,10.0,East,9.2,-,0.19,Thunderstorm,Overcast,90,2013-06-18 05:34:00
12:53 AM,62.6,59.0,88,30.02,10.0,ENE,5.8,-,0.22,Rain,Light Rain,60,2013-06-18 05:53:00
1:13 AM,64.4,60.8,88,30.02,10.0,East,8.1,-,0.02,Rain,Rain,90,2013-06-18 06:13:00
1:33 AM,64.4,60.8,88,30.02,10.0,East,9.2,-,0.03,Rain,Rain,80,2013-06-18 06:33:00
1:54 AM,64.4,60.8,88,30.02,10.0,East,9.2,-,0.03,Thunderstorm,Mostly Cloudy,80,2013-06-18 06:54:00
2:13 AM,62.6,59.0,88,30.02,10.0,East,8.1,-,N/A,,Mostly Cloudy,90,2013-06-18 07:13:00
2:33 AM,62.6,57.2,82,30.03,10.0,East,8.1,-,N/A,,Mostly Cloudy,80,2013-06-18 07:33:00
2:53 AM,62.6,57.2,82,30.04,10.0,ENE,10.4,-,N/A,,Scattered Clouds,60,2013-06-18 07:53:00
3:13 AM,60.8,55.4,82,30.04,10.0,ENE,8.1,-,N/A,,Clear,70,2013-06-18 08:13:00
3:33 AM,59.0,55.4,88,30.04,10.0,East,9.2,-,N/A,,Clear,80,2013-06-18 08:33:00
3:53 AM,59.0,55.4,88,30.05,10.0,ENE,9.2,-,N/A,,Clear,70,2013-06-18 08:53:00
4:13 AM,57.2,55.4,94,30.05,10.0,ENE,6.9,-,N/A,,Clear,70,2013-06-18 09:13:00
4:33 AM,57.2,55.4,94,30.05,10.0,Calm,Calm,-,N/A,,Clear,0,2013-06-18 09:33:00
4:53 AM,55.4,53.6,94,30.06,10.0,Calm,Calm,-,N/A,,Clear,0,2013-06-18 09:53:00
5:14 AM,57.2,53.6,88,30.07,10.0,NE,4.6,-,N/A,,Clear,40,2013-06-18 10:14:00
5:34 AM,55.4,53.6,94,30.08,10.0,Calm,Calm,-,N/A,,Clear,0,2013-06-18 10:34:00
5:53 AM,55.4,53.6,94,30.08,10.0,East,3.5,-,N/A,,Clear,80,2013-06-18 10:53:00
6:15 AM,55.4,53.6,94,30.09,10.0,East,5.8,-,N/A,,Clear,80,2013-06-18 11:15:00
6:34 AM,57.2,53.6,88,30.09,10.0,ENE,4.6,-,N/A,,Clear,70,2013-06-18 11:34:00
6:53 AM,57.2,53.6,88,30.08,10.0,East,4.6,-,N/A,,Clear,80,2013-06-18 11:53:00
7:13 AM,59.0,53.6,82,30.08,10.0,ENE,8.1,-,N/A,,Clear,70,2013-06-18 12:13:00
7:33 AM,59.0,51.8,77,30.09,10.0,East,6.9,-,N/A,,Clear,90,2013-06-18 12:33:00
7:54 AM,60.8,51.8,72,30.09,10.0,East,8.1,-,N/A,,Clear,80,2013-06-18 12:54:00
8:14 AM,60.8,51.8,72,30.09,10.0,ENE,6.9,-,0.01,,Clear,70,2013-06-18 13:14:00
8:34 AM,62.6,53.6,72,30.09,10.0,ESE,6.9,-,0.01,,Clear,120,2013-06-18 13:34:00
8:53 AM,62.6,53.6,72,30.09,10.0,ENE,3.5,-,0.01,,Clear,70,2013-06-18 13:53:00
9:14 AM,62.6,53.6,72,30.09,10.0,East,3.5,-,N/A,,Clear,100,2013-06-18 14:14:00
9:33 AM,64.4,55.4,73,30.09,10.0,ESE,6.9,-,N/A,,Clear,120,2013-06-18 14:33:00
9:53 AM,64.4,53.6,68,30.09,10.0,Calm,Calm,-,N/A,,Clear,0,2013-06-18 14:53:00
10:13 AM,66.2,55.4,68,30.09,10.0,NE,3.5,-,N/A,,Clear,50,2013-06-18 15:13:00
10:33 AM,68.0,55.4,64,30.09,10.0,NE,3.5,-,N/A,,Clear,50,2013-06-18 15:33:00
10:53 AM,68.0,55.4,64,30.09,10.0,East,4.6,-,N/A,,Clear,80,2013-06-18 15:53:00
11:13 AM,69.8,55.4,60,30.09,10.0,Calm,Calm,-,N/A,,Clear,0,2013-06-18 16:13:00
11:33 AM,69.8,55.4,60,30.09,10.0,NE,3.5,-,N/A,,Clear,40,2013-06-18 16:33:00
11:53 AM,71.6,55.4,57,30.08,10.0,Calm,Calm,-,N/A,,Clear,0,2013-06-18 16:53:00
12:14 PM,71.6,53.6,53,30.08,10.0,Calm,Calm,-,N/A,,Clear,0,2013-06-18 17:14:00
12:33 PM,71.6,55.4,57,30.07,10.0,Calm,Calm,-,N/A,,Clear,0,2013-06-18 17:33:00
12:53 PM,73.4,55.4,53,30.07,10.0,ENE,4.6,-,N/A,,Clear,60,2013-06-18 17:53:00
1:14 PM,73.4,55.4,53,30.07,10.0,ENE,6.9,-,N/A,,Clear,70,2013-06-18 18:14:00
1:33 PM,75.2,55.4,50,30.06,10.0,East,3.5,-,N/A,,Clear,80,2013-06-18 18:33:00
1:53 PM,75.2,53.6,47,30.04,10.0,East,10.4,-,N/A,,Clear,100,2013-06-18 18:53:00
2:13 PM,75.2,53.6,47,30.04,10.0,SE,6.9,-,N/A,,Clear,130,2013-06-18 19:13:00
2:33 PM,77.0,51.8,41,30.04,10.0,East,5.8,-,N/A,,Clear,100,2013-06-18 19:33:00
2:54 PM,77.0,53.6,44,30.04,10.0,ESE,5.8,-,N/A,,Clear,120,2013-06-18 19:54:00
3:14 PM,77.0,51.8,41,30.03,10.0,Calm,Calm,-,N/A,,Clear,0,2013-06-18 20:14:00
3:33 PM,77.0,53.6,44,30.03,10.0,SSE,4.6,-,N/A,,Scattered Clouds,150,2013-06-18 20:33:00
3:54 PM,78.8,51.8,39,30.02,10.0,SE,3.5,-,N/A,,Clear,140,2013-06-18 20:54:00
4:13 PM,78.8,53.6,42,30.02,10.0,SSW,4.6,-,N/A,,Clear,200,2013-06-18 21:13:00
4:33 PM,78.8,55.4,44,30.02,10.0,SSE,6.9,-,N/A,,Scattered Clouds,160,2013-06-18 21:33:00
4:53 PM,78.8,53.6,42,30.02,10.0,Calm,Calm,-,N/A,,Scattered Clouds,0,2013-06-18 21:53:00
5:14 PM,78.8,53.6,42,30.01,10.0,South,3.5,-,N/A,,Clear,170,2013-06-18 22:14:00
5:33 PM,78.8,55.4,44,30.01,10.0,SSE,6.9,-,N/A,,Clear,160,2013-06-18 22:33:00
5:51 PM,78.8,55.4,44,30.01,10.0,South,6.9,-,N/A,,Clear,170,2013-06-18 22:51:00
6:55 PM,78.8,53.6,42,30.00,-9999.0,Calm,Calm,-,N/A,,Unknown,0,2013-06-18 23:55:00
7:14 PM,78.8,53.6,42,29.99,10.0,SSE,3.5,-,N/A,,Clear,160,2013-06-19 00:14:00
7:33 PM,77.0,53.6,44,29.99,10.0,SE,5.8,-,N/A,,Clear,130,2013-06-19 00:33:00
7:53 PM,75.2,53.6,47,29.98,10.0,SE,4.6,-,N/A,,Clear,140,2013-06-19 00:53:00
8:13 PM,75.2,53.6,47,29.98,10.0,SSE,4.6,-,N/A,,Clear,150,2013-06-19 01:13:00
8:34 PM,73.4,55.4,53,29.98,10.0,ESE,3.5,-,N/A,,Clear,120,2013-06-19 01:34:00
8:53 PM,73.4,55.4,53,29.98,10.0,SE,3.5,-,N/A,,Clear,130,2013-06-19 01:53:00
9:14 PM,71.6,55.4,57,29.98,10.0,SE,4.6,-,N/A,,Clear,140,2013-06-19 02:14:00
9:33 PM,69.8,55.4,60,29.99,10.0,SSE,5.8,-,N/A,,Clear,150,2013-06-19 02:33:00
9:54 PM,69.8,55.4,60,30.00,10.0,SE,5.8,-,N/A,,Clear,140,2013-06-19 02:54:00
10:14 PM,68.0,55.4,64,30.00,10.0,SE,4.6,-,N/A,,Unknown,140,2013-06-19 03:14:00
10:33 PM,66.2,55.4,68,30.01,10.0,North,-9999.0,-,N/A,,Clear,0,2013-06-19 03:33:00
10:53 PM,66.2,55.4,68,30.00,10.0,SE,5.8,-,N/A,,Clear,130,2013-06-19 03:53:00
11:13 PM,66.2,57.2,73,30.00,10.0,SE,6.9,-,N/A,,Clear,130,2013-06-19 04:13:00
11:33 PM,68.0,57.2,68,30.00,10.0,SE,5.8,-,N/A,,Scattered Clouds,140,2013-06-19 04:33:00
11:53 PM,66.2,57.2,73,30.00,10.0,SE,8.1,-,N/A,,Scattered Clouds,130,2013-06-19 04:53:00